Temperature
16 16 16 17 17 17 17 17 17 17 17 17 17 17 17 17 17 17 16 16 16 16 16 16 16 16 16 16 16 16 16 16 16 16 16 15 15 15 16 16 15 15 15
16 16 16 17 17 17 17 17 17 17 17 16 16 16 16 16 16 16 16 16 16 16 16 16 16 16 16 16 16 16 16 16 16 16 15 15 15 15 15 15 15 15 15
16 16 16 16 17 17 17 17 17 16 16 16 16 16 16 16 16 16 16 16 16 16 16 16 16 16 16 16 16 16 16 16 16 15 15 15 15 15 15 15 15 15 15
16 16 16 16 16 16 16 16 16 16 16 16 16 16 16 16 16 16 16 16 16 16 16 16 16 16 16 16 16 16 16 15 15 15 15 15 15 15 15 15 15 15 15
16 16 16 16 16 16 16 16 16 16 16 16 16 16 16 16 16 16 16 16 16 16 16 16 16 16 16 16 16 15 15 15 15 15 15 15 15 15 15 15 15 15 15
15 15 16 16 16 16 16 16 16 16 16 16 16 16 16 16 16 15 16 16 15 15 15 16 16 16 16 16 15 15 15 15 15 15 15 15 15 15 15 15 15 15 15
15 15 15 15 16 16 16 15 16 16 16 15 15 15 15 15 15 15 15 15 15 15 15 15 16 16 16 15 15 15 15 15 15 15 15 15 15 15 15 15 15 15 15
15 15 15 15 15 15 15 15 15 15 15 15 15 15 15 15 15 15 15 15 15 15 15 15 15 15 15 15 15 15 15 15 15 15 14 14 14 14 14 15 14 15 14
14 14 14 15 15 15 15 15 15 15 15 15 15 15 15 15 15 15 15 15 15 15 15 15 15 15 15 15 15 15 15 15 15 14 14 14 14 14 14 14 14 14 14
14 14 14 14 14 14 14 14 14 14 14 14 14 14 14 14 14 14 14 14 14 14 14 15 15 15 15 15 15 15 15 15 15 14 14 14 14 14 14 14 14 14 14
14 14 14 14 14 14 14 14 14 14 14 14 14 14 14 14 14 14 14 14 14 14 14 14 14 14 14 14 14 14 14 14 14 14 14 14 14 14 14 14 14 14 14
13 13 14 14 14 14 14 14 14 14 13 13 13 13 13 13 13 14 14 14 14 14 14 14 14 14 14 14 14 14 14 14 14 14 14 14 14 14 14 14 14 14 14
13 13 13 13 13 14 14 14 14 13 13 13 13 13 13 13 13 13 13 13 13 13 13 13 13 13 13 13 14 14 14 14 14 14 14 14 14 14 14 14 14 14 14
13 13 13 13 13 13 13 13 13 13 13 13 13 13 13 13 13 13 13 13 13 13 13 13 13 13 13 13 13 13 13 13 13 13 14 14 14 14 14 14 14 14 14
13 13 13 13 13 13 13 13 13 13 12 12 12 12 12 12 12 12 12 12 12 12 12 12 12 13 13 13 13 13 13 13 13 13 13 13 13 13 13 13 13 13 13
12 12 12 12 12 12 12 12 12 12 12 12 12 12 12 12 12 12 12 12 12 12 12 12 12 12 12 12 12 12 12 12 12 12 13 13 13 13 13 13 13 13 13
12 12 12 12 12 12 12 12 12 12 12 12 11 11 11 11 12 12 12 11 11 11 11 11 11 11 11 12 12 12 12 12 12 12 12 12 12 12 12 12 12 12 13
12 12 12 12 12 12 12 12 12 11 11 11 11 11 11 11 11 11 11 11 11 11 11 11 11 11 11 11 11 11 11 11 12 12 12 12 12 12 12 12 12 12 12
11 11 11 11 11 11 11 11 11 11 11 11 11 11 11 11 11 11 11 11 11 11 11 11 11 11 11 11 11 11 11 11 11 11 11 11 11 11 11 11 11 11 12
11 11 11 11 11 11 11 11 11 11 11 11 11 11 11 10 10 10 10 10 10 10 10 10 10 10 10 10 10 10 10 10 10 11 11 11 11 11 11 11 11 11 11
11 10 11 11 11 11 11 11 11 11 11 10 10 10 10 10 10 10 10 10 10 10 10 9 9 10 10 10 10 10 10 10 10 10 10 10 10 10 10 10 10 10 10
10 10 10 10 10 10 10 10 10 10 10 10 10 10 10 10 9 9 9 9 9 9 9 9 9 9 9 9 9 8 8 9 9 9 9 9 10 10 10 10 10 9 10
10 10 10 10 10 10 10 10 10 10 10 10 10 9 9 9 9 9 9 9 8 8 8 8 8 8 8 8 8 7 7 8 8 8 9 9 9 9 9 9 9 9 9
10 10 10 10 9 9 9 9 9 9 9 9 9 9 9 9 8 8 8 8 8 8 8 8 8 8 7 7 7 7 7 6 6 7 8 8 8 8 8 8 8 8 8
9 9 9 9 9 9 9 9 9 9 9 8 8 8 8 8 8 8 8 7 7 7 7 7 7 7 7 7 7 6 6 6 6 6 6 7 7 7 7 8 8 8 8
9 9 9 9 9 8 8 8 8 8 8 8 8 8 8 8 7 7 7 7 7 7 7 7 7 6 6 6 6 6 6 6 6 6 5 6 6 6 7 7 7 7 7
Wind_Speed
4 7 12 11 11 11 11 11 10 10 10 10 9 9 9 8 8 7 7 6 6 6 6 6 6 6 6 6 7 7 7 8 8 9 9 9 10 10 10 9 9 9 10
8 10 13 12 11 11 11 10 10 9 9 9 8 8 8 8 7 6 6 6 5 5 5 5 5 5 5 5 5 6 6 6 7 7 7 7 8 8 8 8 8 8 8
10 11 12 12 11 11 10 10 9 9 8 7 7 7 6 6 6 6 5 5 4 4 4 3 3 3 4 4 4 4 4 4 4 4 5 4 5 6 7 7 7 7 7
11 11 12 12 11 10 9 9 8 8 7 7 6 6 5 5 4 4 4 4 4 3 3 3 2 2 2 2 2 2 2 1 1 2 3 3 3 5 6 6 6 6 6
9 10 11 12 11 10 9 8 8 7 6 6 6 5 4 4 3 3 3 2 2 2 2 2 1 1 1 2 2 1 0 1 1 3 3 3 4 4 5 5 5 5 6
8 10 11 11 10 9 8 7 7 6 6 5 4 4 3 3 2 2 2 2 1 1 1 1 0 1 1 2 3 3 3 2 2 3 3 4 5 6 6 6 6 6 6
7 9 10 11 10 9 7 6 6 6 5 4 4 3 3 2 2 1 1 1 0 0 1 1 1 2 2 3 4 4 4 4 3 3 4 5 6 7 7 6 7 7 6
8 8 9 10 9 8 7 5 5 5 4 4 3 3 2 1 1 1 1 1 1 2 2 2 2 3 3 4 5 6 6 5 4 4 4 5 7 8 8 7 8 8 7
8 8 7 7 7 7 6 6 4 4 4 3 3 2 2 1 2 2 2 1 2 2 3 3 4 4 5 5 6 6 7 6 5 5 5 6 8 9 9 8 9 9 8
7 6 6 7 6 6 5 5 4 4 3 3 2 2 2 2 2 2 2 2 2 3 4 4 4 5 5 6 7 7 7 7 6 7 7 8 9 10 10 10 10 11 10
6 4 5 5 6 5 4 5 5 4 4 4 3 3 3 3 2 2 2 3 3 4 5 5 5 6 6 7 8 8 7 6 6 7 8 10 11 11 11 11 10 11 12
4 3 3 4 5 5 4 4 5 4 4 4 4 4 3 3 3 3 3 4 4 4 5 6 6 6 6 6 7 8 6 7 6 7 9 12 13 12 12 12 12 12 12
4 3 3 3 4 5 4 4 4 4 4 5 5 4 4 4 3 4 3 4 4 4 5 5 5 5 5 5 5 6 6 6 6 7 9 12 13 13 13 13 12 12 12
4 3 2 3 4 4 5 3 3 4 4 4 4 5 4 3 3 3 3 3 4 4 4 4 4 4 4 5 5 5 5 5 5 6 8 11 12 13 13 13 13 12 12
4 3 2 2 3 3 4 3 3 3 3 3 4 5 5 3 2 2 2 3 4 4 3 3 3 4 4 4 5 4 4 5 5 5 6 8 10 11 12 12 12 12 12
4 3 2 2 3 3 2 2 2 3 3 4 4 5 5 4 3 2 2 3 3 4 4 3 3 3 3 3 4 4 4 5 5 5 5 6 7 8 10 11 11 10 10
4 3 2 2 2 2 2 2 2 2 3 4 4 5 6 6 5 3 2 2 3 5 4 3 3 3 3 3 4 4 4 4 3 3 4 4 4 5 6 7 8 9 9
4 3 2 2 2 1 1 1 1 2 3 3 4 6 7 7 6 4 2 2 4 4 3 2 2 2 3 3 4 4 4 3 3 3 2 2 2 3 4 5 6 7 7
4 3 2 2 2 1 1 1 2 2 3 3 4 5 6 7 7 5 3 4 5 4 3 3 3 2 3 4 4 4 3 3 2 2 1 2 2 3 3 4 5 6 6
4 3 2 2 2 2 2 2 2 2 2 3 4 4 6 6 6 6 4 5 5 3 3 3 3 3 2 3 4 4 3 3 2 2 2 1 1 2 3 4 4 5 7
3 3 2 2 1 2 2 1 1 1 1 1 2 4 5 6 6 5 4 4 4 3 3 4 3 3 3 3 3 3 3 2 2 2 2 1 2 2 3 3 3 3 5
3 3 3 2 1 1 1 0 0 0 1 1 1 3 4 4 5 4 3 3 3 3 3 4 3 2 3 2 1 2 3 3 2 2 1 1 2 3 3 3 3 3 4
3 3 3 2 1 1 1 1 2 2 2 2 2 2 3 4 4 4 3 3 3 2 3 3 3 2 3 3 1 1 2 3 3 2 2 2 2 2 3 3 3 4 5
4 3 2 3 2 1 1 2 1 1 1 2 1 1 2 4 4 4 3 3 2 2 2 3 3 2 2 3 2 1 2 2 3 4 3 2 3 3 4 4 3 4 4
4 3 3 2 2 1 1 1 1 1 1 1 1 1 2 3 3 3 3 2 2 2 2 3 3 3 2 2 2 2 2 3 3 4 6 4 4 3 3 4 3 3 4
3 2 2 3 2 2 3 2 2 2 2 1 2 1 2 2 2 3 3 2 2 2 2 2 2 3 3 3 2 2 2 3 3 3 5 6 6 4 4 3 3 3 3
Wind_Direction
165 155 138 132 125 119 114 109 105 104 101 96 93 90 89 89 91 95 102 107 108 106 100 92 90 93 93 96 96 94 94 94 95 93 92 91 95 98 97 95 94 90 93
156 145 135 132 127 123 117 112 108 107 104 101 98 94 91 88 87 89 98 104 107 107 104 98 94 92 92 99 103 101 101 104 104 102 99 97 100 103 102 102 103 100 97
139 136 132 131 128 123 119 115 111 109 106 105 102 99 96 92 87 84 87 95 98 100 98 103 104 103 98 97 107 110 110 114 116 120 123 117 120 119 117 115 114 111 107
130 129 129 127 125 122 121 121 116 112 109 106 105 101 100 96 91 84 85 86 83 83 93 100 102 108 124 121 117 117 121 117 149 156 164 161 156 145 138 135 132 127 123
118 121 124 124 122 119 119 119 118 113 111 107 104 101 99 95 91 85 77 80 85 75 75 90 114 128 171 183 183 190 241 282 236 178 176 185 193 180 166 159 155 151 144
111 115 121 122 120 117 115 117 116 114 114 110 108 106 102 93 83 74 66 71 80 82 70 75 132 240 238 233 236 244 259 283 256 201 199 200 202 197 189 183 176 172 167
112 115 121 120 117 115 113 109 114 114 111 112 114 111 100 83 63 43 26 28 354 280 280 268 269 275 261 258 261 262 266 272 244 222 220 217 212 207 203 196 191 189 189
117 109 112 116 115 113 113 111 114 115 112 108 105 100 89 65 30 2 336 308 290 286 285 283 275 275 275 270 269 271 271 269 257 241 233 228 223 218 212 206 202 202 202
106 98 89 95 102 104 104 106 99 103 103 98 97 87 71 38 8 347 331 306 287 289 287 284 281 280 277 274 276 278 273 267 253 246 244 236 230 229 225 219 213 210 210
92 90 84 79 79 81 87 93 80 87 88 80 77 70 55 33 7 348 336 312 298 292 289 289 291 290 286 282 278 281 280 270 255 250 248 242 236 235 233 227 222 219 217
77 72 76 70 64 65 74 77 65 65 62 60 57 56 47 26 5 348 336 329 315 302 295 294 293 292 290 289 284 280 280 271 255 252 247 244 242 241 239 233 228 226 223
93 73 69 63 59 57 58 58 53 48 47 47 39 40 35 25 9 353 338 341 333 321 311 302 297 294 292 292 291 287 279 267 255 254 249 244 244 245 244 241 236 230 227
121 92 64 67 63 61 49 51 50 46 40 38 36 34 32 29 14 5 355 343 339 334 328 316 311 301 295 291 291 288 280 271 262 258 253 247 248 249 250 247 241 234 230
115 101 74 68 65 60 54 43 56 48 30 25 23 25 30 27 14 3 359 343 342 333 324 320 314 305 297 292 288 287 285 278 270 268 263 253 251 252 255 253 244 235 231
117 107 90 83 69 60 56 41 47 42 23 19 20 18 25 28 3 357 351 347 336 331 325 320 316 311 303 298 294 291 288 283 278 273 273 264 257 257 258 257 250 244 240
134 123 103 91 77 70 68 48 31 31 25 28 28 20 21 20 9 357 349 343 334 324 316 310 311 305 296 297 294 292 283 282 281 281 279 277 272 271 268 265 260 256 250
148 136 119 118 93 77 61 40 26 28 41 39 28 25 22 21 17 12 3 348 338 334 334 331 326 321 313 309 299 296 294 289 287 286 286 287 293 292 283 279 275 266 263
140 133 112 99 87 83 59 29 31 33 50 41 30 28 23 18 15 15 13 348 345 352 354 339 332 330 321 315 308 305 307 305 301 302 302 313 311 305 301 293 286 278 271
143 135 121 104 87 56 46 46 56 48 54 39 32 29 22 17 15 15 9 354 353 1 356 343 345 333 320 318 308 307 310 307 304 310 335 354 339 327 314 302 291 288 280
130 126 120 97 70 53 45 53 45 48 47 32 30 22 21 19 15 13 9 2 3 3 353 348 337 338 321 315 313 315 311 302 307 300 288 332 0 343 339 330 315 298 287
127 131 125 92 58 62 42 44 39 3 31 35 21 20 21 22 14 15 11 4 3 360 346 340 334 335 335 335 335 324 315 297 284 291 310 321 343 351 346 334 318 312 304
151 156 148 120 79 68 64 33 175 307 347 342 360 7 13 19 12 12 20 4 354 356 351 344 341 332 333 353 345 322 316 319 313 311 308 301 317 337 339 328 315 304 297
170 177 171 148 129 83 54 56 43 37 14 4 1 355 355 3 6 4 9 10 352 354 342 333 327 324 316 323 330 258 285 281 312 288 287 303 316 316 315 328 320 313 302
194 185 181 161 141 110 80 93 95 87 270 277 290 309 338 354 356 354 360 6 352 348 336 324 331 314 296 301 309 283 260 271 283 299 290 294 306 303 302 309 305 315 306
189 186 186 174 151 152 146 152 161 237 258 281 304 333 343 346 349 347 349 352 344 334 326 322 324 320 304 284 284 287 289 293 270 272 289 296 297 285 289 290 293 310 314
184 187 192 186 190 191 181 180 189 219 238 275 309 320 324 328 333 336 338 340 332 328 326 323 318 315 309 301 296 286 277 277 280 275 281 292 295 292 292 284 286 294 314
Height
1530 1532 1534 1535 1537 1538 1539 1540 1540 1541 1541 1542 1542 1543 1543 1543 1543 1544 1544 1544 1545 1545 1545 1545 1545 1545 1545 1545 1545 1545 1545 1545 1545 1545 1544 1544 1544 1544 1544 1544 1543 1543 1543
1529 1531 1533 1535 1536 1538 1538 1539 1540 1541 1541 1542 1542 1543 1543 1543 1543 1544 1544 1544 1544 1545 1545 1545 1545 1545 1546 1546 1546 1546 1546 1545 1545 1545 1545 1545 1545 1544 1544 1544 1544 1544 1543
1529 1531 1533 1534 1536 1537 1538 1539 1540 1540 1541 1541 1542 1542 1543 1543 1543 1543 1544 1544 1544 1544 1545 1545 1545 1545 1545 1545 1546 1546 1545 1545 1545 1545 1545 1545 1545 1545 1545 1544 1544 1544 1544
1529 1531 1532 1534 1535 1537 1538 1538 1539 1540 1540 1541 1541 1542 1542 1542 1543 1543 1543 1543 1544 1544 1544 1544 1544 1545 1545 1545 1545 1545 1545 1545 1545 1545 1545 1545 1545 1545 1545 1545 1544 1544 1544
1529 1530 1532 1534 1535 1536 1537 1537 1538 1539 1539 1540 1540 1541 1541 1541 1542 1542 1542 1542 1543 1543 1543 1543 1544 1544 1544 1544 1544 1545 1545 1545 1545 1545 1544 1544 1545 1545 1545 1545 1545 1544 1544
1528 1530 1532 1533 1534 1535 1536 1536 1537 1538 1538 1539 1539 1540 1540 1540 1541 1541 1541 1541 1541 1542 1542 1542 1542 1543 1543 1543 1543 1544 1544 1544 1544 1544 1544 1544 1544 1544 1544 1544 1544 1544 1544
1528 1530 1532 1533 1534 1535 1535 1535 1536 1537 1537 1537 1538 1538 1539 1539 1539 1539 1540 1540 1540 1540 1540 1541 1541 1541 1541 1542 1542 1542 1542 1543 1543 1543 1543 1543 1543 1543 1543 1544 1544 1543 1543
1528 1529 1531 1532 1533 1534 1534 1535 1535 1536 1536 1536 1536 1537 1537 1537 1537 1538 1538 1538 1538 1538 1539 1539 1539 1539 1540 1540 1540 1541 1541 1541 1541 1541 1542 1542 1542 1542 1542 1543 1543 1543 1542
1528 1529 1530 1531 1532 1533 1533 1533 1534 1534 1534 1535 1535 1535 1535 1535 1536 1536 1536 1536 1536 1536 1537 1537 1537 1537 1537 1538 1538 1538 1539 1539 1539 1539 1540 1540 1540 1541 1541 1541 1541 1541 1541
1527 1529 1529 1530 1531 1531 1532 1532 1532 1532 1533 1533 1533 1533 1534 1534 1534 1534 1534 1534 1534 1534 1534 1535 1535 1535 1535 1535 1536 1536 1536 1536 1537 1537 1538 1538 1538 1539 1539 1539 1539 1539 1539
1526 1528 1529 1529 1530 1530 1530 1531 1531 1531 1531 1531 1531 1532 1532 1532 1532 1532 1532 1532 1532 1532 1532 1532 1532 1532 1532 1533 1533 1533 1533 1533 1534 1534 1535 1535 1536 1536 1536 1537 1537 1537 1537
1525 1527 1527 1528 1529 1529 1529 1529 1529 1529 1529 1529 1529 1530 1530 1530 1530 1530 1530 1530 1530 1529 1529 1529 1529 1529 1530 1529 1530 1530 1530 1530 1531 1531 1532 1532 1533 1533 1533 1534 1534 1534 1534
1524 1525 1526 1527 1527 1527 1527 1527 1527 1527 1527 1527 1528 1528 1528 1528 1528 1528 1528 1527 1527 1527 1527 1527 1527 1526 1526 1526 1527 1527 1527 1527 1527 1528 1528 1529 1529 1530 1530 1530 1531 1531 1531
1523 1524 1525 1525 1525 1525 1526 1525 1525 1525 1525 1525 1525 1525 1525 1525 1525 1525 1525 1525 1525 1524 1524 1524 1523 1523 1523 1523 1523 1523 1523 1524 1524 1524 1524 1525 1525 1526 1526 1527 1527 1527 1527
1522 1523 1523 1524 1524 1524 1524 1524 1524 1523 1523 1523 1523 1523 1523 1523 1523 1523 1522 1522 1522 1522 1521 1521 1520 1520 1520 1520 1520 1520 1520 1520 1520 1520 1520 1521 1521 1522 1522 1522 1523 1523 1523
1520 1521 1522 1522 1522 1522 1522 1522 1522 1521 1521 1521 1521 1521 1521 1520 1520 1520 1520 1520 1519 1519 1518 1518 1517 1517 1517 1516 1516 1516 1516 1516 1516 1516 1516 1517 1517 1517 1518 1518 1518 1519 1519
1519 1520 1520 1521 1520 1520 1520 1520 1520 1519 1519 1519 1519 1518 1518 1518 1518 1517 1517 1517 1516 1516 1516 1515 1514 1514 1513 1513 1513 1512 1512 1512 1511 1511 1512 1512 1512 1513 1513 1513 1514 1514 1514
1518 1519 1519 1519 1519 1519 1518 1518 1517 1517 1517 1517 1516 1516 1516 1516 1515 1515 1514 1514 1514 1513 1512 1512 1511 1510 1510 1509 1509 1508 1508 1507 1507 1507 1507 1507 1507 1508 1508 1509 1509 1509 1509
1517 1517 1517 1517 1517 1517 1516 1516 1515 1515 1514 1514 1514 1514 1514 1514 1513 1512 1511 1511 1510 1510 1509 1509 1508 1507 1506 1505 1505 1504 1504 1503 1503 1503 1503 1503 1503 1503 1503 1504 1504 1504 1504
1515 1516 1516 1515 1515 1515 1514 1513 1513 1513 1512 1512 1512 1512 1512 1511 1510 1510 1509 1508 1507 1507 1506 1506 1505 1504 1503 1502 1501 1500 1500 1499 1499 1498 1498 1498 1498 1498 1498 1498 1499 1499 1499
1514 1514 1514 1513 1513 1512 1512 1510 1511 1511 1510 1511 1510 1510 1509 1509 1508 1507 1506 1505 1504 1503 1503 1502 1501 1501 1500 1499 1498 1496 1496 1495 1495 1494 1494 1494 1494 1494 1494 1494 1493 1493 1493
1512 1512 1512 1511 1511 1511 1510 1510 1509 1509 1508 1508 1508 1508 1507 1506 1506 1504 1503 1502 1501 1500 1500 1499 1498 1497 1497 1496 1496 1494 1492 1492 1491 1491 1490 1490 1490 1490 1489 1489 1488 1488 1488
1510 1510 1510 1509 1510 1509 1509 1508 1508 1507 1507 1507 1506 1506 1505 1504 1503 1502 1500 1499 1499 1498 1497 1496 1496 1495 1494 1493 1493 1493 1491 1489 1487 1486 1486 1486 1486 1486 1485 1484 1484 1484 1483
1508 1508 1508 1508 1508 1507 1507 1507 1506 1506 1505 1504 1504 1503 1502 1501 1500 1499 1498 1497 1496 1495 1494 1493 1493 1492 1491 1490 1489 1489 1489 1488 1487 1483 1482 1483 1482 1482 1481 1480 1479 1479 1479
1506 1506 1506 1506 1505 1506 1505 1505 1505 1505 1504 1503 1502 1501 1500 1499 1498 1497 1496 1495 1494 1492 1491 1490 1489 1489 1488 1487 1486 1485 1485 1484 1484 1482 1478 1477 1477 1477 1476 1475 1475 1474 1474
1504 1505 1504 1504 1504 1504 1504 1503 1503 1503 1502 1501 1499 1498 1497 1496 1496 1495 1493 1492 1491 1490 1489 1487 1486 1486 1485 1484 1483 1482 1482 1481 1480 1479 1476 1473 1471 1471 1471 1470 1470 1469 1468